Flag for U.S.A. Weather past 2 weeks in Howland Island, U.S.A.

Now
84 °F

Passing clouds.


Feels Like: 94 °F
Forecast: 82 / 88 °F
Wind: 3 mph from North

Location: Funafuti

Current Time: May 25, 2015 at 12:27:25 AM

Latest Report: May 25, 2015 at 12:00 AM


Visibility: N/A

Pressure: 29.92 "Hg

Humidity: 79%

Dew point: 77 °F

Location of Howland IslandLocation

Historic Weather in Howland Island — Graph

°F

Howland Island temperature yesterday

Maximum temperature yesterday: 91 °F (at 12:00 PM)
Minimum temperature yesterday: 82 °F (at 12:00 AM)
Average temperature yesterday: 86 °F

Past Weeks' High & Low Weather Summary

 TemperatureHumidityPressure
High91 °F (May 14, 2:00 PM)100% (May 21, 8:00 AM)30.36 "Hg (May 21, 8:00 AM)
Low75 °F (May 17, 5:00 PM)63% (May 23, 12:00 PM)29.71 "Hg (May 11, 2:00 AM)
Average85 °F80%29.83 "Hg
* Reported May 9 11:00 PM — May 24 11:00 PM, Howland Island, Weather by CustomWeather, © 2015

Note: Actual official high and low records may vary slightly from our data, if they occured in-between our weather recording intervals... More about our weather records

Advertising

Howland Island weather history for previous 24 hours

 ConditionsComfort  
Time TempWeatherWind HumidityBarometerVisibility
11:00 PM
Sun, May 24
84 °FPassing clouds.3 mph74%29.92 "HgN/A
10:00 PM84 °FPassing clouds.3 mph79%29.92 "HgN/A
9:00 PM84 °FPassing clouds.3 mph79%29.92 "HgN/A
8:00 PM84 °FPassing clouds.1 mph79%29.92 "HgN/A
6:00 PM84 °FPassing clouds.3 mph74%29.89 "HgN/A
5:00 PM86 °FPassing clouds.3 mph79%29.86 "HgN/A
4:00 PM88 °FPassing clouds.7 mph75%29.89 "HgN/A
3:00 PM90 °FPassing clouds.7 mph71%29.89 "HgN/A
2:00 PM90 °FPassing clouds.3 mph71%29.89 "HgN/A
1:00 PM91 °FPassing clouds.5 mph67%29.92 "HgN/A
12:00 PM91 °FPassing clouds.6 mph71%29.95 "HgN/A
10:00 AM90 °FPassing clouds.7 mph71%29.95 "HgN/A
9:00 AM86 °FPassing clouds.6 mph75%29.98 "HgN/A
8:00 AM86 °FPassing clouds.6 mph79%29.95 "HgN/A
6:00 AM82 °FPassing clouds.6 mph84%29.92 "HgN/A
5:00 AM82 °FPassing clouds.5 mph79%29.92 "HgN/A
4:00 AM82 °FPassing clouds.6 mph84%29.89 "HgN/A
3:00 AM82 °FPassing clouds.5 mph79%29.89 "HgN/A
1:00 AM82 °FPassing clouds.1 mph79%29.92 "HgN/A
12:00 AM82 °FPassing clouds.2 mph79%29.95 "HgN/A
Weather by CustomWeather, © 2015

See weather overviewHow to use our weather pages